Regional Weather Roundup
Issued by NWS

Home | Current Version | Previous Version | Graphics & Text | Print | Product List | Glossary Off
Versions: 1 2 3 4 5 6 7 8 9 10 11 12 13 14 15 16 17 18 19 20 21 22 23 24 25 26 27 28 29 30 31 32 33 34 35 36 37 38 39 40 41 42 43 44 45 46 47 48 49 50

000
ASUS43 KMKX 240407
RWRWI

WISCONSIN REGIONAL WEATHER ROUNDUP
NATIONAL WEATHER SERVICE MILWAUKEE/SULLIVAN WI
1100 PM CDT SAT MAY 23 2015

NOTE: "FAIR" INDICATES FEW OR NO CLOUDS BELOW 12,000 FEET WITH NO
SIGNIFICANT WEATHER AND/OR OBSTRUCTIONS TO VISIBILITY.

WIZ001-002-006>008-014>016-023>028-240500-
NORTHWEST WISCONSIN

CITY           SKY/WX    TMP DP  RH WIND       PRES   REMARKS
SUPERIOR ARPT  CLEAR     57  43  59 CALM      30.15R
ASHLAND        PTCLDY    54  42  64 SW7       30.16S
HAYWARD        MOCLDY    54  46  74 CALM      30.18S
SIREN          CLOUDY    60  49  68 CALM      30.17S
CUMBERLAND     CLOUDY    59  50  72 CALM      30.17S
RICE LAKE      CLOUDY    60  54  79 CALM      30.18F
CHETEK         CLOUDY    59  54  82 N3        30.17F
LADYSMITH      CLOUDY    60  50  69 CALM      30.20R
EAU CLAIRE     NOT AVBL
MENOMONIE      PTCLDY    62  43  50 CALM      30.16S
NEW RICHMOND   MOCLDY    61  49  64 NE5       30.16S
OSCEOLA        LGT RAIN  61  52  71 E3        30.18S
$$

WIZ003>005-009-010-017-018-240500-
NORTH CENTRAL WISCONSIN

CITY           SKY/WX    TMP DP  RH WIND       PRES   REMARKS
MANITOWISH WTR MOCLDY    56  44  63 CALM      30.19S
ARBOR VITAE    CLOUDY    60  43  54 CALM      30.19F
WOODRUFF       CLOUDY    60  43  54 CALM      30.19F
RHINELANDER    CLOUDY    59  43  55 CALM      30.20S
EAGLE RIVER    CLOUDY    59  39  47 W3        30.19R
LAND O LAKES   MOCLDY    57  42  56 CALM      30.20S
PHILLIPS       CLOUDY    57  48  70 CALM      30.18S
TOMAHAWK       CLOUDY    56  46  67 CALM      30.19F
MEDFORD        LGT RAIN  58  49  71 CALM      30.20R
MERRILL        CLOUDY    58  50  73 CALM      30.19S
$$

WIZ029-030-035-036-043>047-240500-
CENTRAL WISCONSIN

CITY           SKY/WX    TMP DP  RH WIND       PRES   REMARKS
WAUSAU         CLOUDY    61  46  57 CALM      30.17S
MOSINEE        CLOUDY    59  48  67 CALM      30.19S
MARSHFIELD     CLOUDY    63  45  51 NE3       30.18R
STEVENS POINT  MOCLDY    56  48  72 CALM      30.18S
WAUPACA        MOCLDY    60  48  64 CALM      30.18S
WAUTOMA        NOT AVBL
WISC RAPIDS    MOCLDY    63  44  50 CALM      30.19R
CAMP DOUGLAS   NOT AVBL
$$

WIZ011>013-019>022-031-037>040-048>050-240500-
NORTHEAST WISCONSIN

CITY           SKY/WX    TMP DP  RH WIND       PRES   REMARKS
ANTIGO         CLOUDY    60  47  62 CALM      30.20S
SHAWANO        MOCLDY    67  42  39 S3        30.19R
OCONTO         MOCLDY    56  49  76 CALM      30.17S
STURGEON BAY   PTCLDY    61  39  44 S10       30.21S
GREEN BAY      PTCLDY    64  42  44 S7        30.19R
MANITOWOC      NOT AVBL
APPLETON       MOCLDY    63  43  48 S8        30.19S
CLINTONVILLE   MOCLDY    61  45  55 SE5       30.18R
OSHKOSH        PTCLDY    57  44  62 S8        30.18S
$$

WIZ032>034-041-042-053>061-240500-
SOUTHWEST WISCONSIN

CITY           SKY/WX    TMP DP  RH WIND       PRES   REMARKS
LA CROSSE      MOCLDY    63  49  60 SE5       30.14R
SPARTA         MOCLDY    56  48  74 CALM      30.17S
VIROQUA        MOCLDY    63  44  48 SE6       30.17S
BOSCOBEL       PTCLDY    56  49  77 CALM      30.16S
PRAIRIE DU CHI MOCLDY    60  48  64 CALM      30.14S
PLATTEVILLE    MOCLDY    66  46  49 E7        30.17S
$$

WIZ056-057-062-063-064-067-068-240500-
SOUTH CENTRAL WISCONSIN

CITY           SKY/WX    TMP DP  RH WIND       PRES   REMARKS
REEDSBURG      PTCLDY    59  48  67 CALM      30.17R
BARABOO/DELLS  PTCLDY    58  44  58 CALM      30.17S
LONE ROCK      NOT AVBL
MINERAL POINT  PTCLDY    64  41  42 SE5       30.18S
MADISON        MOCLDY    59  48  67 CALM      30.18R
MIDDLETON      CLEAR     59  45  60 CALM      30.19S
WATERTOWN      PTCLDY    61  46  57 SE3       30.19R
MONROE         PTCLDY    68  41  37 E3        30.19S
JANESVILLE     PTCLDY    63  43  48 SE3       30.18S
$$

WIZ051-052-058>065-066-070>072-240500-
SOUTHEAST WISCONSIN

CITY           SKY/WX    TMP DP  RH WIND       PRES   REMARKS
MILWAUKEE      MOCLDY    59  41  51 SW3       30.20S
WAUKESHA       PTCLDY    61  39  44 CALM      30.22R
MILWAUKEE/TIMM PTCLDY    63  36  36 CALM      30.21S
RACINE         PTCLDY    57  39  51 S6        30.22S
BURLINGTON     PTCLDY    56  45  66 CALM      30.20S
KENOSHA        CLEAR     60  41  49 SE8       30.21R
FOND DU LAC    PTCLDY    59  43  55 S5        30.19S
SHEBOYGAN      CLEAR     55  39  54 S3        30.21R
WEST BEND      CLEAR     55  39  54 CALM      30.21R
JUNEAU         PTCLDY    62  46  55 E7        30.20S
$$

LSZ147-162-240500-
LAKE SUPERIOR

STATION/POSITION TIME  TEMP    WIND        PRES    WAVE
                       AIR SEA DIR/SP/G            HT/PER
                 (UTC) (F)     (DEG/KT/KT) (MB)    (FT/S)
W MID LAKE BUOY  0250   44 37  220/  8/ 10   N/A     1
DEVILS ISLAND    0300   64     230/ 18/ 19   N/A
PORT WING        0300   63     190/  5/  6   N/A
SAXON HARBOR     0300   60     190/  1/  5   N/A
$$

LMZ867-665-643>646-240500-
LAKE MICHIGAN

STATION/POSITION TIME  TEMP    WIND        PRES    WAVE
                       AIR SEA DIR/SP/G            HT/PER
                 (UTC) (F)     (DEG/KT/KT) (MB)    (FT/S)
CHAMBERS ISLAND  0300   65     170/  6/ 12   N/A
N MID LAKE BUOY  0250   43 36  210/ 12/ 14   N/A     2/ 4
NORTHPORT PIER   0300   63     190/  4/ 11   N/A
SISTER BAY       0317   63     190/ 17/ 20   N/A
KEWAUNEE LAKESHO 0300   53     180/  8/ 10   N/A
SHEBOYGAN LAKESH 0300   58     210/  7/  7   N/A
PORT WASHINGTON  0300   54      CALM  /  1   N/A
ATWATER BUOY     0300   51 46  180/  4/  4   N/A
MILWAUKEE LAKESH 0300   54     110/  1/  2   N/A
S MID LAKE BUOY  0250   48 38  120/ 10/ 10   N/A     0
KENOSHA   LAKESH 0300   55     180/ 10/ 12   N/A
$$

TC  - TEMPERATURE IN CELSIUS
VSB - VISIBILITY IN STATUTE MILES
WCI - WIND CHILL INDEX
HX  - HEAT INDEX



USA.gov is the U.S. government's official web portal to all federal, state and local government web resources and services.